Location: Fort Worth, Tx
(32.7431°N, 97.3695°W)
Time: 03:33:20
(UTC-05:00)

O/OREOS (USA 219) - Visible Passes

Search period start: 03 March 2024 00:00
Search period end: 13 March 2024 01:00
Orbit: 621 x 646 km, 72.0° (Epoch: 22 May)

Date Brightness Start Highest point End Pass type
(mag) Time Alt. Az. Time Alt. Az. Time Alt. Az.
03 Mar ? 05:18:17 28° ENE 05:18:17 28° ENE 05:20:59 10° NE visible
03 Mar ? 06:55:47 18° WNW 06:56:17 18° WNW 06:59:27 10° NNW visible
04 Mar ? 05:40:44 34° NNE 05:40:44 34° NNE 05:43:21 10° NNE visible
05 Mar ? 06:03:01 23° NNW 06:03:01 23° NNW 06:05:06 10° N visible
06 Mar ? 04:47:42 11° NE 04:47:42 11° NE 04:47:53 10° NE visible
06 Mar ? 06:25:11 13° NNW 06:25:11 13° NNW 06:26:01 10° NNW visible
07 Mar ? 05:09:46 12° NNE 05:09:46 12° NNE 05:10:09 10° NNE visible
08 Mar ? 05:31:44 10° N 05:31:44 10° N 05:31:49 10° N visible
